If you wish to contribute or participate in the discussions about articles you are invited to join SKYbrary as a registered user

 Actions

Genoa/Cristoforo Colombo Airport

From SKYbrary Wiki

LIMJ
Airport
ICAO: LIMJ – IATA: GOA
Summary
Name Genoa/Cristoforo Colombo Airport
Region Europe
Territory Italy IT.gif
Location Sestri Ponente, Genoa, Liguria
Serving Genoa
Elevation 3.962 m
13 ft
13 ft3.962 m
Coordinates 44° 24' 43.03" N, 8° 50' 46.80" E
Runways
Designator Length Width Surface ROPS
11/29 2915 m9,563.648 ft
45 m147.638 ft
ASP no/no


METAR
Observation LIMJ 211320Z 16005KT 9999 SCT023 27/22 Q1020
Station Genova / Sestri
Date/Time 21 July 2019 13:20:00
Wind direction 160°
Wind speed 05 kts
Lowest cloud amount scattered clouds
Temperature 27°C
Dew point 22°C
Humidity 74%
QNH 1020 hPa
Weather condition n/a

RE
Tag(s) Aquaplaning
WX
Tag(s) Low Level Turbulence

International airport serving Italian port of Genova.

Climatology

Dry-summer subtropical ”Mediterranean" climate (Köppen climate classification Csa) - characterized by hot, dry summers and mild winters. During the summer, subtropical high pressure cells dominate, making rainfall unlikely except for the occasional thunderstorm. In the winter, periodic storms bring rain (snow at higher elevations).

Maps

Terrain

Loading map...

Airport Layout

Loading map...


Accidents & Serious Incidents at or in vicinity of LIMJ

None on SKYbrary